Weather History for Crestview, FL

Change the Weather History Date:

Sunday, October 6, 2013

  Actual Average Record
Temperature  
Mean Temperature 72 °F -  
Max Temperature 79 °F 83 °F 94 °F (1951)
Min Temperature 66 °F 57 °F 39 °F (1979)
Cooling Degree Days 7    
Growing Degree Days 22 (Base 50)    
Moisture  
Dew Point 70 °F    
Average Humidity 94    
Maximum Humidity 100    
Minimum Humidity 81    
Precipitation  
Precipitation 1.27 in - - ()
Sea Level Pressure  
Sea Level Pressure 29.91 in    
Wind  
Wind Speed 2 mph (East)    
Max Wind Speed 7 mph    
Max Gust Speed -    
Visibility 5 miles    
Events Fog , Rain , Thunderstorm    
Averages and records for this station are not official NWS values.
T = Trace of Precipitation, MM = Missing Value Source: NWS Daily Summary

Daily Weather History Graph

Daily Weather History Graph

Search for Another Location

Airport:

Trip Planner

Search our weather history database for the weather conditions in past years. The results will help you decide how hot, cold, wet, or windy it might be!

Date:

Astronomy

Oct. 06, 2013 Rise Set
Actual Time 6:42 AM CDT 6:24 PM CDT
Civil Twilight 6:18 AM CDT 6:48 PM CDT
Nautical Twilight 5:50 AM CDT 7:16 PM CDT
Astronomical Twilight 5:22 AM CDT 7:44 PM CDT
Moon 8:17 AM CDT (10/6) 7:34 PM CDT (10/6)
Length of Visible Light 12h 30m
Length of Day
11h 41m
Waxing Crescent, 3% of the Moon is Illuminated
Oct 6
Waxing Crescent
Oct 11
First Quarter
Oct 18
Full
Oct 26
Last Quarter
Nov 3
New

Hourly Weather History & Observations

Time (CDT) Temp. Dew Point Humidity Pressure Visibility Wind Dir Wind Speed Gust Speed Precip Events Conditions
12:17 AM 71.6 °F 69.8 °F 94% 29.98 in 1.8 mi Calm Calm - N/A   Clear
12:25 AM 71.6 °F 69.8 °F 94% 29.98 in 3.0 mi Calm Calm - N/A   Clear
12:40 AM 69.8 °F 69.8 °F 100% 29.98 in 2.0 mi ENE 4.6 mph - N/A   Clear
12:50 AM 71.6 °F 69.8 °F 94% 29.97 in 7.0 mi ENE 3.5 mph - N/A   Clear
12:53 AM 71.1 °F 69.1 °F 93% 29.96 in 8.0 mi Calm Calm - N/A   Clear
1:53 AM 71.1 °F 69.1 °F 93% 29.96 in 6.0 mi Calm Calm - N/A   Clear
2:30 AM 69.8 °F 68.0 °F 94% 29.95 in 1.2 mi Calm Calm - N/A   Clear
2:41 AM 69.8 °F 66.2 °F 88% 29.95 in 3.0 mi Calm Calm - N/A   Clear
2:53 AM 68.0 °F 66.9 °F 96% 29.94 in 3.0 mi Calm Calm - N/A   Clear
3:53 AM 68.0 °F 66.9 °F 96% 29.92 in 6.0 mi Calm Calm - N/A   Clear
4:22 AM 68.0 °F 66.2 °F 94% 29.93 in 2.0 mi Calm Calm - N/A   Clear
4:29 AM 68.0 °F 66.2 °F 94% 29.93 in 1.0 mi Calm Calm - N/A   Clear
4:36 AM 66.2 °F 66.2 °F 100% 29.93 in 3.0 mi Calm Calm - N/A   Clear
4:48 AM 66.2 °F 64.4 °F 94% 29.94 in 1.8 mi Calm Calm - N/A   Clear
4:53 AM 66.9 °F 64.9 °F 93% 29.93 in 1.8 mi ENE 3.5 mph - N/A   Clear
4:57 AM 68.0 °F 66.2 °F 94% 29.94 in 4.0 mi ENE 4.6 mph - N/A   Clear
5:53 AM 69.1 °F 66.9 °F 93% 29.94 in 6.0 mi Calm Calm - N/A   Clear
7:53 AM 71.1 °F 69.1 °F 93% 29.93 in 8.0 mi East 5.8 mph - N/A   Clear
8:12 AM 73.4 °F 71.6 °F 94% 29.94 in 9.0 mi Variable 3.5 mph - N/A   Scattered Clouds
8:53 AM 73.9 °F 71.1 °F 91% 29.95 in 10.0 mi SE 5.8 mph - N/A   Overcast
8:57 AM 73.4 °F 71.6 °F 94% 29.95 in 2.5 mi SSE 5.8 mph - 0.03 in Rain Light Rain
9:00 AM 73.4 °F 71.6 °F 94% 29.95 in 0.8 mi South 6.9 mph - 0.11 in Rain Heavy Rain
9:14 AM 73.4 °F 71.6 °F 94% 29.94 in 2.0 mi ESE 4.6 mph - 0.20 in Rain Rain
9:17 AM 73.4 °F 71.6 °F 94% 29.95 in 3.0 mi ESE 4.6 mph - 0.20 in Rain Light Rain
9:53 AM 75.0 °F 73.0 °F 94% 29.94 in 6.0 mi East 5.8 mph - 0.20 in Rain Light Rain
10:21 AM 77.0 °F 73.4 °F 89% 29.95 in 10.0 mi Variable 4.6 mph - 0.00 in   Mostly Cloudy
10:53 AM 78.1 °F 72.0 °F 81% 29.94 in 10.0 mi Variable 5.8 mph - 0.00 in   Mostly Cloudy
11:53 AM 78.1 °F 72.0 °F 81% 29.92 in 10.0 mi SE 5.8 mph - 0.00 in   Overcast
12:53 PM 78.1 °F 73.0 °F 84% 29.90 in 10.0 mi East 3.5 mph - 0.00 in   Overcast
1:01 PM 77.0 °F 73.4 °F 89% 29.91 in 1.8 mi ESE 4.6 mph - 0.05 in Rain Light Rain
1:22 PM 75.2 °F 73.4 °F 94% 29.90 in 3.0 mi Calm Calm - 0.13 in Rain Light Rain
1:31 PM 75.2 °F 73.4 °F 94% 29.90 in 2.5 mi Calm Calm - 0.13 in Rain Light Rain
1:53 PM 75.0 °F 73.0 °F 94% 29.89 in 1.0 mi ESE 3.5 mph - 0.26 in Rain Heavy Rain
1:58 PM 73.4 °F 73.4 °F 100% 29.89 in 0.8 mi East 4.6 mph - 0.05 in Rain , Thunderstorm Heavy Rain
2:12 PM 73.4 °F 73.4 °F 100% 29.90 in 0.2 mi Variable 6.9 mph - 0.27 in Fog , Rain , Thunderstorm Heavy Rain
2:20 PM 73.4 °F 71.6 °F 94% 29.90 in 1.0 mi South 3.5 mph - 0.33 in Rain , Thunderstorm Heavy Thunderstorms and Rain
2:32 PM 73.4 °F 71.6 °F 94% 29.89 in 2.5 mi South 5.8 mph - 0.35 in Rain , Thunderstorm Thunderstorms and Rain
2:36 PM 73.4 °F 71.6 °F 94% 29.89 in 3.0 mi South 4.6 mph - 0.36 in Rain Rain
2:48 PM 73.4 °F 71.6 °F 94% 29.89 in 2.5 mi Calm Calm - 0.39 in Rain Heavy Rain
2:53 PM 72.0 °F 70.0 °F 93% 29.88 in 2.5 mi Calm Calm - 0.40 in Rain Rain
3:04 PM 73.4 °F 71.6 °F 94% 29.88 in 4.0 mi ENE 4.6 mph - 0.02 in Rain Rain
3:23 PM 73.4 °F 71.6 °F 94% 29.87 in 10.0 mi ENE 4.6 mph - 0.02 in   Overcast
3:43 PM 71.6 °F 69.8 °F 94% 29.88 in 10.0 mi ENE 4.6 mph - 0.02 in   Overcast
3:53 PM 72.0 °F 70.0 °F 93% 29.87 in 2.5 mi ENE 4.6 mph - 0.03 in Rain Heavy Rain
4:08 PM 71.6 °F 69.8 °F 94% 29.87 in 3.0 mi ENE 3.5 mph - 0.00 in Rain Light Rain
4:44 PM 73.4 °F 71.6 °F 94% 29.88 in 0.8 mi Calm Calm - 0.08 in Rain Heavy Rain
4:51 PM 71.6 °F 71.6 °F 100% 29.87 in 0.5 mi Calm Calm - 0.11 in Fog , Rain Heavy Rain
4:53 PM 72.0 °F 71.1 °F 97% 29.87 in 0.5 mi Calm Calm - 0.11 in Fog , Rain Rain
4:57 PM 71.6 °F 71.6 °F 100% 29.87 in 2.0 mi Calm Calm - 0.01 in Rain Rain
5:53 PM 72.0 °F 71.1 °F 97% 29.84 in 2.5 mi East 4.6 mph - 0.22 in Rain Heavy Rain
6:14 PM 71.6 °F 69.8 °F 94% 29.84 in 5.0 mi East 5.8 mph - 0.05 in Rain Light Rain
6:21 PM 71.6 °F 71.6 °F 100% 29.85 in 9.0 mi East 3.5 mph - 0.05 in Rain Light Rain
6:53 PM 72.0 °F 70.0 °F 93% 29.83 in 10.0 mi ENE 3.5 mph - 0.05 in   Scattered Clouds
7:53 PM 72.0 °F 70.0 °F 93% 29.84 in 10.0 mi ENE 3.5 mph - N/A   Clear
8:04 PM 71.6 °F 69.8 °F 94% 29.85 in 10.0 mi Calm Calm - N/A   Partly Cloudy
8:53 PM 72.0 °F 70.0 °F 93% 29.85 in 10.0 mi Calm Calm - N/A   Partly Cloudy
9:09 PM 71.6 °F 69.8 °F 94% 29.86 in 10.0 mi Calm Calm - N/A   Partly Cloudy
9:53 PM 71.1 °F 70.0 °F 96% 29.85 in 8.0 mi Calm Calm - N/A   Mostly Cloudy
10:44 PM 71.6 °F 69.8 °F 94% 29.86 in 9.0 mi Calm Calm - N/A   Overcast
10:53 PM 73.0 °F 70.0 °F 90% 29.85 in 10.0 mi Calm Calm - N/A   Overcast
11:53 PM 72.0 °F 70.0 °F 93% 29.85 in 8.0 mi Calm Calm - 0.00 in Rain Light Rain